AL YAH 3 (43174 NORAD) Tracking and Keplerian Element Data

This shows tracking and keplerian element data for the satellite.

Feedback or suggestion? Click here.




ElementValue
Catalog43174
NameAL YAH 3
Epoch Orbit434
Epoch Day81.65550104
Epoch Year2019
RAAN241.802
Inclination0.0156
Eccentricity0.0002007
Argument of Perigee128.1839
Mean Anonmoly25.7284
Mean Motion1.00273703
Decay Rate-1.8E-06
L11 43174U 18012A 19081.65550104 -.00000180 00000-0 00000-0 0 9996
L22 43174 0.0156 241.8020 0002007 128.1839 25.7284 1.00273703 4343

Live tracking and technical data element details for AL YAH 3 (NORAD 43174). AL YAH 3 can be tracked NOW for your location showing map with azimuth and elevation plus other details from your city location.

Track the satellite on the map from your city or location and see movement details for azimuth, elevation, latitude, longitude, range, height, and movement on the map or in text.







IsCatalogInMostPopularTable: catalog: 43174, numindb: 309
Update: records affected: 1



GetName: 43174 AL YAH 3

Hit Count: updated at: Sun, 24 Mar 2019 08:39:53 GMT